DW4236 Weather Reports


Display with metric or nautical units.
time (UTC)temp
F
wind
direction
speed
MPH
gust
MPH
rain 1hr
in
rain 24hr
in
rain mn
in
humidity
%
barometer
mb
20260904225105 78 315 0.0 3.0 0.00 0.25 0.25 71 1011.6
20260904224604 78 310 1.0 2.0 0.00 0.25 0.25 71 1011.5
20260904224105 78 309 0.0 1.0 0.00 0.25 0.25 71 1011.5
20260904223605 78 309 0.0 1.0 0.00 0.25 0.25 70 1011.5
20260904223105 78 310 0.0 1.0 0.00 0.25 0.25 70 1011.5
20260904222604 79 305 0.0 2.0 0.00 0.25 0.25 70 1011.6
20260904222104 79 303 0.0 2.0 0.00 0.25 0.25 70 1011.5
20260904221605 79 301 1.0 3.0 0.00 0.25 0.25 69 1011.5
20260904215604 80 276 1.0 5.0 0.00 0.25 0.25 66 1011.4
20260904214604 80 293 1.0 3.0 0.00 0.25 0.25 65 1011.3
20260904214105 80 286 2.0 3.0 0.00 0.25 0.25 63 1011.3
20260904213605 81 284 1.0 3.0 0.00 0.25 0.25 63 1011.3
20260904213105 82 284 0.0 3.0 0.00 0.25 0.25 61 1011.3
20260904212604 82 283 2.0 3.0 0.00 0.25 0.25 60 1011.2
20260904211604 82 302 1.0 3.0 0.00 0.25 0.25 59 1011.2
20260904211106 82 288 2.0 3.0 0.00 0.25 0.25 58 1011.2
20260904210605 82 263 2.0 3.0 0.00 0.25 0.25 58 1011.4
20260904210105 83 294 2.0 7.0 0.00 0.25 0.25 55 1011.4
20260904205605 83 307 3.0 8.0 0.00 0.25 0.25 55 1011.3
20260904205105 83 280 5.0 9.0 0.00 0.25 0.25 55 1011.4
20260904204604 84 317 3.0 5.0 0.00 0.25 0.25 54 1011.3
20260904203605 84 296 3.0 9.0 0.00 0.25 0.25 56 1011.4
20260904203105 85 288 3.0 10.0 0.00 0.25 0.25 52 1011.5
20260904202606 85 319 2.0 8.0 0.00 0.25 0.25 53 1011.6
20260904202105 85 276 3.0 10.0 0.00 0.25 0.25 53 1011.6
20260904201605 85 287 3.0 12.0 0.00 0.25 0.25 52 1011.5
20260904201104 85 295 5.0 12.0 0.00 0.25 0.25 54 1011.5
20260904200605 86 326 2.0 9.0 0.00 0.25 0.25 54 1011.5
20260904200105 85 0 3.0 12.0 0.00 0.25 0.25 52 1011.6
20260904195605 85 303 2.0 8.0 0.00 0.25 0.25 55 1011.5
20260904195105 85 301 5.0 10.0 0.00 0.25 0.25 52 1011.5
20260904194604 85 352 1.0 7.0 0.00 0.25 0.25 52 1011.6
20260904194105 85 356 3.0 7.0 0.00 0.25 0.25 53 1011.5
20260904193605 85 310 1.0 8.0 0.00 0.25 0.25 55 1011.5
20260904193104 85 292 3.0 10.0 0.00 0.25 0.25 54 1011.5
20260904192604 84 350 1.0 7.0 0.00 0.25 0.25 56 1011.5
20260904192105 84 19 2.0 9.0 0.00 0.25 0.25 57 1011.6
20260904191604 84 28 3.0 6.0 0.00 0.25 0.25 57 1011.8
20260904191105 84 20 3.0 6.0 0.00 0.25 0.25 56 1011.7
20260904190604 85 294 2.0 8.0 0.00 0.25 0.25 54 1011.8
20260904190104 85 296 2.0 7.0 0.00 0.25 0.25 56 1011.9
20260904185106 85 92 2.0 3.0 0.00 0.25 0.25 55 1012.0
20260904184605 85 10 1.0 12.0 0.00 0.25 0.25 58 1012.1
20260904184105 85 289 3.0 7.0 0.00 0.25 0.25 56 1012.1
20260904183105 84 328 2.0 9.0 0.00 0.25 0.25 57 1012.2
20260904182605 85 299 2.0 5.0 0.00 0.25 0.25 57 1012.3
20260904182105 84 80 3.0 8.0 0.00 0.25 0.25 59 1012.3
20260904181606 84 74 3.0 5.0 0.00 0.25 0.25 58 1012.2
20260904181105 83 31 3.0 6.0 0.00 0.25 0.25 59 1012.3
20260904180605 83 17 1.0 6.0 0.00 0.25 0.25 60 1012.2
20260904180105 84 29 6.0 10.0 0.00 0.25 0.25 58 1012.2
20260904175104 83 65 2.0 9.0 0.00 0.25 0.25 61 1012.1
20260904174604 84 50 6.0 12.0 0.00 0.25 0.25 59 1012.2
20260904174105 83 44 5.0 8.0 0.00 0.25 0.25 62 1012.2
20260904173606 83 70 3.0 7.0 0.00 0.25 0.25 60 1012.1
20260904173106 83 84 5.0 10.0 0.00 0.25 0.25 62 1012.2
20260904172604 83 45 3.0 10.0 0.00 0.25 0.25 60 1012.1
20260904172104 84 8 4.0 12.0 0.00 0.25 0.25 60 1012.2
20260904171605 84 307 3.0 6.0 0.00 0.25 0.25 61 1012.1
20260904171105 83 20 2.0 6.0 0.00 0.25 0.25 62 1012.1
20260904170605 82 11 5.0 12.0 0.00 0.25 0.25 65 1012.3
20260904170105 82 34 3.0 8.0 0.00 0.25 0.25 65 1012.3
20260904165604 82 23 4.0 9.0 0.00 0.25 0.25 62 1012.4
20260904165104 83 65 5.0 12.0 0.00 0.25 0.25 65 1012.3
20260904164606 83 26 2.0 7.0 0.00 0.25 0.25 64 1012.3
20260904164104 82 32 6.0 12.0 0.00 0.25 0.25 66 1012.3
20260904163604 82 19 4.0 9.0 0.00 0.25 0.25 67 1012.4
20260904163105 82 53 3.0 13.0 0.00 0.25 0.25 67 1012.5
20260904162604 82 307 1.0 3.0 0.00 0.25 0.25 67 1012.5
20260904162105 82 20 4.0 9.0 0.00 0.25 0.25 67 1012.5
20260904161604 82 30 5.0 8.0 0.00 0.25 0.25 69 1012.4
20260904161105 81 345 3.0 8.0 0.00 0.25 0.25 70 1012.4
20260904160604 80 25 5.0 12.0 0.00 0.25 0.25 69 1012.4
20260904160104 81 66 5.0 13.0 0.00 0.25 0.25 69 1012.4
20260904155105 79 0 2.0 3.0 0.00 0.25 0.25 75 1013.0
20260904154105 79 17 3.0 7.0 0.00 0.25 0.25 72 1012.9
20260904153606 80 30 5.0 10.0 0.00 0.25 0.25 72 1012.9
20260904153104 81 54 3.0 8.0 0.00 0.25 0.25 72 1012.9
20260904152104 82 45 3.0 10.0 0.00 0.25 0.25 69 1013.0
20260904151605 82 345 2.0 8.0 0.00 0.25 0.25 69 1013.0
20260904151105 82 17 3.0 14.0 0.00 0.25 0.25 69 1013.1
20260904150604 81 20 4.0 9.0 0.00 0.25 0.25 69 1013.2
20260904150105 81 9 4.0 9.0 0.00 0.25 0.25 69 1013.1
20260904145604 81 355 5.0 10.0 0.00 0.25 0.25 72 1013.1
20260904145105 81 7 5.0 8.0 0.00 0.25 0.25 72 1012.9
20260904144105 80 6 1.0 8.0 0.00 0.25 0.25 74 1013.1
20260904143605 80 311 4.0 10.0 0.00 0.25 0.25 73 1013.0
20260904143104 80 10 2.0 9.0 0.00 0.25 0.25 76 1013.0
20260904141605 79 358 3.0 8.0 0.00 0.25 0.25 79 1013.0
20260904141104 79 300 2.0 6.0 0.00 0.25 0.25 82 1013.0
20260904140604 78 277 2.0 5.0 0.00 0.25 0.25 82 1013.0
20260904135605 77 355 2.0 6.0 0.00 0.25 0.25 86 1012.9
20260904135105 77 321 3.0 8.0 0.00 0.25 0.25 87 1013.0
20260904134604 76 342 2.0 7.0 0.00 0.25 0.25 88 1012.8
20260904134104 76 308 3.0 10.0 0.00 0.25 0.25 90 1012.7
20260904133605 75 320 2.0 9.0 0.00 0.25 0.25 91 1012.8
20260904133104 75 348 2.0 6.0 0.00 0.25 0.25 93 1012.8
20260904132604 74 318 2.0 5.0 0.00 0.25 0.25 94 1012.9
20260904132104 74 259 1.0 6.0 0.00 0.25 0.25 95 1012.9
20260904131604 73 307 3.0 5.0 0.00 0.25 0.25 95 1012.8
20260904131105 73 312 1.0 5.0 0.00 0.25 0.25 96 1012.8
20260904130606 73 280 2.0 6.0 0.00 0.25 0.25 96 1013.0
20260904130104 73 252 1.0 3.0 0.00 0.25 0.25 96 1013.0
20260904125604 72 356 2.0 5.0 0.00 0.25 0.25 96 1013.1
20260904125104 72 309 2.0 6.0 0.00 0.25 0.25 96 1013.2
20260904124604 72 323 1.0 6.0 0.00 0.25 0.25 97 1013.2
20260904124104 71 317 2.0 6.0 0.00 0.25 0.25 97 1013.3
20260904123605 71 306 1.0 5.0 0.00 0.25 0.25 97 1013.1
20260904123105 71 259 1.0 3.0 0.00 0.25 0.25 97 1013.1
20260904122105 71 261 1.0 3.0 0.00 0.25 0.25 97 1013.1
20260904121605 71 261 0.0 0.0 0.00 0.25 0.25 97 1012.9
20260904121105 70 261 0.0 0.0 0.00 0.25 0.25 97 1012.8
20260904120604 70 261 0.0 0.0 0.00 0.25 0.25 97 1012.8
20260904120105 70 261 0.0 0.0 0.00 0.25 0.25 97 1012.9
20260904115604 70 261 0.0 0.0 0.00 0.25 0.25 97 1012.9
20260904114604 69 261 1.0 2.0 0.01 0.25 0.25 97 1012.8
20260904114104 69 261 0.0 0.0 0.01 0.25 0.25 97 1012.8
20260904113604 68 261 0.0 0.0 0.01 0.25 0.25 97 1012.9
20260904113104 68 261 0.0 0.0 0.01 0.25 0.25 96 1012.8
20260904112604 68 261 0.0 0.0 0.01 0.25 0.25 96 1012.9
20260904111605 68 261 0.0 0.0 0.01 0.25 0.25 96 1012.7
20260904111105 68 261 0.0 0.0 0.01 0.25 0.25 96 1012.8
20260904110605 68 261 0.0 0.0 0.01 0.25 0.25 96 1012.7
20260904110105 68 261 0.0 0.0 0.01 0.25 0.25 96 1012.6
20260904105605 68 261 0.0 0.0 0.01 0.25 0.25 96 1012.6
20260904105105 68 261 0.0 0.0 0.00 0.24 0.24 96 1012.5
20260904104605 68 261 0.0 0.0 0.00 0.24 0.24 96 1012.4
20260904104104 68 261 0.0 0.0 0.00 0.24 0.24 96 1012.4
20260904103605 68 261 0.0 0.0 0.00 0.24 0.24 96 1012.3
20260904103104 68 261 0.0 0.0 0.00 0.24 0.24 96 1012.4
20260904102104 68 261 0.0 0.0 0.00 0.24 0.24 96 1012.4
20260904101604 68 261 0.0 0.0 0.00 0.24 0.24 96 1012.4
20260904100604 68 261 0.0 1.0 0.00 0.24 0.24 96 1012.3
20260904100105 68 261 0.0 0.0 0.00 0.24 0.24 96 1012.2
20260904095604 68 261 0.0 0.0 0.00 0.24 0.24 96 1012.2
20260904095105 68 261 0.0 0.0 0.00 0.24 0.24 96 1012.0
20260904094604 69 261 0.0 0.0 0.00 0.24 0.24 96 1012.0
20260904094105 69 261 0.0 0.0 0.00 0.24 0.24 96 1011.9
20260904093605 69 261 0.0 0.0 0.00 0.24 0.24 96 1011.9
20260904093104 69 261 0.0 0.0 0.00 0.24 0.24 96 1011.8
20260904092605 69 261 0.0 1.0 0.00 0.25 0.24 96 1011.7
20260904091605 69 261 0.0 2.0 0.00 0.25 0.24 96 1011.8
20260904090604 69 261 0.0 1.0 0.00 0.25 0.24 96 1012.0
20260904090104 69 261 0.0 0.0 0.00 0.25 0.24 96 1011.9
20260904085604 69 261 0.0 0.0 0.00 0.25 0.24 96 1011.9
20260904085104 69 261 0.0 0.0 0.00 0.25 0.24 96 1011.9
20260904084605 69 261 0.0 0.0 0.00 0.25 0.24 96 1011.9
20260904084104 69 261 0.0 0.0 0.00 0.25 0.24 96 1011.8
20260904083605 69 261 0.0 1.0 0.00 0.25 0.24 96 1011.8
20260904083104 70 261 0.0 0.0 0.00 0.25 0.24 96 1011.7
20260904082105 70 261 0.0 0.0 0.01 0.25 0.24 96 1011.5
20260904081604 70 261 1.0 2.0 0.02 0.25 0.24 96 1011.4
20260904081104 70 261 0.0 0.0 0.04 0.25 0.24 96 1011.3
20260904080604 70 261 0.0 0.0 0.05 0.25 0.24 96 1011.3
20260904080104 70 261 0.0 2.0 0.05 0.25 0.24 95 1011.2
20260904075605 70 261 1.0 2.0 0.06 0.25 0.24 95 1011.2
20260904075106 70 203 0.0 1.0 0.07 0.25 0.24 95 1011.2
20260904074604 70 203 1.0 2.0 0.11 0.25 0.24 95 1011.2
20260904074106 70 202 0.0 0.0 0.18 0.25 0.24 95 1011.2
20260904073606 70 202 0.0 0.0 0.20 0.25 0.24 95 1011.1
20260904073104 70 203 0.0 0.0 0.20 0.26 0.24 95 1011.1
20260904072604 70 203 0.0 0.0 0.20 0.26 0.24 95 1011.4
20260904071605 70 211 0.0 3.0 0.20 0.24 0.22 95 1011.8
20260904071104 70 267 1.0 2.0 0.20 0.22 0.20 95 1012.2
20260904070604 70 275 2.0 3.0 0.19 0.21 0.19 95 1012.3
20260904070106 70 32 2.0 12.0 0.19 0.21 0.19 95 1012.3
20260904065604 71 265 5.0 13.0 0.18 0.20 0.18 95 1012.5
20260904065105 72 294 5.0 10.0 0.17 0.19 0.17 94 1012.5
20260904064604 74 336 7.0 18.0 0.13 0.15 0.13 96 1012.8
20260904064105 74 259 0.0 1.0 0.06 0.08 0.06 96 1012.6
20260904063105 73 259 0.0 0.0 0.04 0.06 0.04 96 1012.1
20260904062606 73 259 0.0 0.0 0.04 0.06 0.04 96 1012.0
20260904062104 73 259 0.0 0.0 0.03 0.05 0.03 95 1011.9
20260904061604 73 259 0.0 0.0 0.02 0.04 0.02 95 1011.9
20260904061104 73 259 0.0 0.0 0.00 0.02 0.00 95 1011.9
20260904060604 73 259 0.0 0.0 0.00 0.03 0.00 95 1011.8
20260904060105 73 259 0.0 0.0 0.00 0.03 0.00 95 1011.8
20260904055104 73 259 0.0 0.0 0.00 0.03 0.00 95 1011.9
20260904054606 73 259 0.0 0.0 0.00 0.03 0.00 95 1012.0
20260904053104 74 259 0.0 0.0 0.00 0.04 0.00 95 1012.2
20260904052604 74 259 0.0 0.0 0.00 0.04 0.00 95 1012.2
20260904052104 74 259 0.0 0.0 0.00 0.05 0.00 95 1012.3
20260904051604 74 259 0.0 0.0 0.00 0.05 0.00 95 1012.3
20260904051106 73 259 0.0 0.0 0.00 0.06 0.00 95 1012.3
20260904050605 73 259 0.0 0.0 0.00 0.07 0.00 95 1012.3
20260904050105 73 259 0.0 0.0 0.00 0.09 0.00 95 1012.3
20260904045605 73 259 0.0 0.0 0.00 0.11 0.00 95 1012.4
20260904044604 73 259 0.0 0.0 0.00 0.16 0.00 95 1012.3
20260904044105 73 259 0.0 0.0 0.00 0.18 0.00 95 1012.3
20260904043604 73 259 0.0 0.0 0.00 0.21 0.00 95 1012.4
20260904043104 73 259 0.0 0.0 0.00 0.23 0.00 95 1012.4
20260904042604 73 259 0.0 0.0 0.00 0.26 0.00 95 1012.4
20260904042104 73 259 0.0 0.0 0.00 0.29 0.00 95 1012.5
20260904041604 73 259 0.0 0.0 0.00 0.37 0.00 95 1012.6
20260904040605 73 259 0.0 0.0 0.00 0.37 0.00 95 1012.7
20260904040105 73 259 0.0 0.0 0.00 0.37 0.00 95 1012.7
20260904035605 73 259 0.0 0.0 0.00 0.37 0.37 94 1012.7
20260904034604 73 259 0.0 0.0 0.00 0.37 0.37 94 1012.4
20260904034105 73 259 0.0 0.0 0.00 0.37 0.37 94 1012.5
20260904033604 74 259 0.0 0.0 0.00 0.37 0.37 94 1012.5
20260904033105 74 259 0.0 0.0 0.00 0.37 0.37 94 1012.5
20260904032604 74 259 0.0 0.0 0.00 0.37 0.37 94 1012.5
20260904031604 74 259 0.0 0.0 0.00 0.37 0.37 94 1012.5
20260904031104 74 259 0.0 0.0 0.00 0.37 0.37 94 1012.5
20260904030605 74 259 0.0 0.0 0.00 0.37 0.37 94 1012.5
20260904030104 74 259 0.0 0.0 0.00 0.37 0.37 94 1012.6
20260904025604 74 259 0.0 0.0 0.00 0.37 0.37 94 1012.8
20260904025105 74 259 0.0 0.0 0.00 0.37 0.37 94 1012.9
20260904023604 74 259 0.0 0.0 0.00 0.37 0.37 94 1013.2
20260904023104 74 259 0.0 0.0 0.00 0.37 0.37 94 1013.2
20260904022604 74 259 0.0 1.0 0.00 0.37 0.37 94 1013.2
20260904022104 74 259 0.0 0.0 0.00 0.37 0.37 94 1013.2
20260904021604 74 259 0.0 0.0 0.00 0.37 0.37 94 1013.2
20260904020605 74 259 0.0 0.0 0.00 0.37 0.37 94 1013.2
20260904020106 74 259 0.0 0.0 0.00 0.37 0.37 94 1013.3
20260904015605 74 259 0.0 0.0 0.00 0.37 0.37 93 1013.3
20260904015104 74 259 0.0 0.0 0.00 0.37 0.37 93 1013.3
20260904014604 74 259 0.0 0.0 0.00 0.37 0.37 93 1013.4
20260904014104 74 259 0.0 0.0 0.00 0.37 0.37 93 1013.5
20260904013605 74 259 0.0 0.0 0.00 0.37 0.37 93 1013.7
20260904013105 75 259 0.0 0.0 0.00 0.37 0.37 93 1013.6
20260904012604 75 259 0.0 0.0 0.00 0.37 0.37 93 1013.5
20260904011629 75 259 0.0 0.0 0.00 0.37 0.37 93 1013.3
20260904011104 75 259 0.0 0.0 0.00 0.37 0.37 92 1013.2
20260904010604 75 259 0.0 0.0 0.00 0.37 0.37 92 1013.3
20260904010105 75 259 0.0 0.0 0.00 0.37 0.37 92 1013.3
20260904005605 75 259 0.0 1.0 0.00 0.37 0.37 92 1013.4
20260904004605 76 259 0.0 0.0 0.00 0.37 0.37 91 1013.3
20260904003605 76 259 0.0 0.0 0.00 0.37 0.37 91 1013.3
20260904002605 76 259 0.0 0.0 0.00 0.37 0.37 91 1013.1
20260904002104 77 259 0.0 0.0 0.00 0.37 0.37 90 1013.2
20260904001604 77 259 0.0 0.0 0.00 0.37 0.37 90 1013.2
20260904001105 77 259 0.0 0.0 0.00 0.37 0.37 90 1013.1
20260904000604 77 259 0.0 0.0 0.00 0.37 0.37 89 1013.1
20260904000104 78 259 0.0 0.0 0.00 0.37 0.37 89 1013.0
20260903235604 78 259 0.0 0.0 0.00 0.37 0.37 89 1012.9
20260903235104 78 259 0.0 0.0 0.00 0.37 0.37 88 1012.9
20260903234604 78 259 0.0 0.0 0.00 0.37 0.37 88 1013.0
20260903233604 79 259 0.0 0.0 0.00 0.37 0.37 87 1012.9
20260903233104 79 259 0.0 0.0 0.00 0.37 0.37 86 1012.8
20260903232605 79 259 0.0 0.0 0.00 0.37 0.37 85 1012.7
20260903232105 80 259 0.0 0.0 0.00 0.37 0.37 85 1012.7
20260903231604 80 259 0.0 0.0 0.00 0.37 0.37 84 1012.7
20260903230605 81 259 0.0 1.0 0.00 0.37 0.37 83 1012.7
20260903230104 81 259 0.0 1.0 0.00 0.37 0.37 83 1012.7